Regional Weather Roundup
Issued by NWS

Home | Current Version | Previous Version | Text Only | Print | Product List | Glossary Off
Versions: 1 2 3 4 5 6 7 8 9 10 11 12 13 14 15 16 17 18 19 20 21 22 23 24 25 26 27 28 29 30 31 32 33 34 35 36 37 38 39 40 41 42 43 44 45 46 47 48 49 50

000
ASUS44 KMEG 290810
RWRTN
TENNESSEE HOURLY STATE WEATHER ROUNDUP
NATIONAL WEATHER SERVICE MEMPHIS TN
200 AM CST THU JAN 29 2015

TNZ002-004-019-021-049-052-054-088>092-290900-
WEST TENNESSEE

CITY           SKY/WX    TMP DP  RH WIND       PRES   REMARKS
MEMPHIS INTL   MOCLDY    58  37  45 S15       30.05S
NWS MEMPHIS      N/A     54 N/A N/A MISG        N/A
JACKSON        MOCLDY    52  31  44 S14G22    30.05S
DYERSBURG      CLOUDY    54  28  37 S9        30.02S
UNION CITY     CLEAR     48  34  57 S9        29.98S
PARIS          MOCLDY    46  30  53 S15       30.01F
LEXINGTON      CLEAR     46  28  49 S10       30.07R
SAVANNAH       CLEAR     46  28  49 S10       30.11R
$$

TNZ008-025-027-028-033-062-065-066-290900-
NORTH MIDDLE TENNESSEE

CITY           SKY/WX    TMP DP  RH WIND       PRES   REMARKS
NASHVILLE      CLOUDY    46  27  47 S15       30.11F
CLARKSVILLE    MOCLDY    49  28  44 S15       30.05R
SMYRNA         MOCLDY    43  25  49 S10       30.13F
COOKEVILLE     CLEAR     39  18  41 S8        30.15S WCI  34
CROSSVILLE     MOCLDY    38  13  35 VRB6G18   30.17S WCI  33
$$

TNZ061-075-076-078-094-096-097-290900-
SOUTH MIDDLE TENNESSEE

CITY           SKY/WX    TMP DP  RH WIND       PRES   REMARKS
FAYETTEVILLE   CLEAR     41  23  48 MISG      30.18S
TULLAHOMA      CLEAR     41  21  45 S9        30.17F
WINCHESTER     CLEAR     43  23  45 S5        30.20R
MCMINNVILLE    CLEAR     32  25  74 SE3       30.16R
COLUMBIA       CLEAR     46  30  53 S13       30.09F
SHELBYVILLE    CLEAR     45  27  49 S13       30.17F
$$

TNZ017-018-042-046-047-290900-
NORTHEAST TENNESSEE

CITY           SKY/WX    TMP DP  RH WIND       PRES   REMARKS
TRI CITIES     PTCLDY    25  20  81 CALM      30.22S
ELIZABETHTON   SUNNY     27  19  74 NE5       30.21S WCI  21
$$

TNZ012-013-036-069-073-074-290900-
CENTRAL EAST TENNESSEE

CITY           SKY/WX    TMP DP  RH WIND       PRES   REMARKS
KNOXVILLE      CLOUDY    28  22  78 N5        30.24R WCI  23
OAK RIDGE      MOCLDY    29  23  78 CALM      30.25S
GATLINBURG     SUNNY     23  19  86 CALM      30.24R
MORRISTOWN     SUNNY     28  21  74 CALM      30.23R
$$

TNZ083-085-099-290900-
SOUTHEAST TENNESSEE

CITY           SKY/WX    TMP DP  RH WIND       PRES   REMARKS
CHATTANOOGA    PTCLDY    31  24  75 CALM      30.25F
$$

SKY/WX REPORTED AS FAIR MEANS FEW OR NO CLOUDS BELOW
12 THOUSAND FEET.



USA.gov is the U.S. government's official web portal to all federal, state and local government web resources and services.